RH
29 24 19 16 15 14 13 13 12 12 11 11 10 10 9 9 8 8 7 7 7 7 7 7 7 7 7 7 7 7 8 7 8 8 8 8 8 8 8 8 8 8 8 8 8 8 8 7 7 7 7 7 6 6 6 6 5 5 5 5 5 5 5 5 5 5 6 6 5 5 5 5 5 5 5 5 5 5 5 5 5 5 5 4 4
17 16 15 14 14 13 13 12 12 11 11 10 10 9 8 7 7 6 6 6 6 6 6 6 6 6 6 6 6 6 6 6 6 6 6 6 7 7 7 7 7 7 7 7 7 7 7 7 7 7 6 6 6 6 5 6 5 5 5 5 4 5 5 4 5 5 5 6 5 5 5 5 5 5 5 5 5 5 5 5 5 5 5 4 4
15 15 15 14 13 13 12 11 11 10 9 8 8 7 7 6 6 6 6 6 6 6 6 6 6 6 5 5 5 5 5 5 5 5 5 5 5 5 6 6 6 6 6 6 6 6 6 6 6 6 6 6 6 6 5 5 5 5 5 5 4 4 5 4 5 5 5 5 5 5 5 5 5 5 5 5 5 5 4 4 4 4 4 4 4
15 15 14 13 12 12 11 11 10 9 8 8 7 7 7 6 6 6 6 6 6 6 6 6 5 5 5 5 5 5 5 5 5 5 5 5 5 5 5 5 5 5 5 5 5 5 5 5 6 5 5 5 5 5 5 5 5 5 4 4 4 4 4 4 4 4 5 4 4 4 4 4 4 4 5 5 5 5 5 5 4 4 4 4 4
14 14 13 12 12 11 11 10 10 9 9 9 8 7 7 7 6 6 6 6 6 6 5 5 5 5 5 5 5 5 5 5 5 5 5 5 5 5 4 4 4 4 5 5 5 5 5 4 5 5 4 5 5 4 4 4 4 4 4 3 4 4 4 4 4 4 4 4 4 4 3 4 4 4 4 4 5 5 5 5 4 4 5 4 4
14 13 13 12 12 12 11 11 10 10 9 9 8 7 7 7 6 7 6 6 6 6 5 5 5 4 4 4 4 4 4 5 5 4 5 4 4 4 4 4 4 4 4 4 4 4 5 4 4 5 4 4 4 4 4 4 4 4 4 3 4 4 3 4 4 3 4 4 3 3 3 3 3 4 4 4 4 4 4 5 4 4 5 4 4
14 13 13 13 12 12 12 11 10 9 9 8 7 7 7 7 7 6 6 6 5 5 5 4 4 4 4 4 4 4 4 4 4 4 4 4 4 4 4 4 4 4 4 4 4 4 4 4 4 4 4 4 4 4 3 4 4 3 4 3 3 4 4 3 3 4 3 3 4 3 3 3 3 3 4 3 4 4 3 4 4 4 4 4 4
14 14 14 14 13 12 11 11 10 9 8 8 7 7 7 7 6 6 6 5 5 5 5 5 4 4 4 4 4 4 4 4 4 4 4 4 4 4 4 4 4 4 4 3 4 4 4 4 4 4 4 4 3 4 3 3 3 3 3 3 3 3 4 4 3 3 4 3 3 3 3 3 3 3 3 3 3 4 3 4 3 4 4 4 4
16 16 15 13 12 11 10 10 9 9 8 7 7 7 7 6 6 6 6 5 5 5 5 5 4 4 4 4 4 3 3 3 3 4 3 3 4 3 3 4 3 3 3 3 3 4 3 3 4 3 3 3 3 3 3 3 3 3 3 3 3 3 3 3 3 3 4 4 3 3 3 3 3 3 3 3 3 3 3 3 3 3 3 4 4
16 15 13 11 10 10 10 9 9 8 7 7 7 6 6 6 6 6 6 6 5 5 4 4 4 4 3 3 3 3 3 3 3 3 3 3 3 3 3 3 3 3 3 3 3 3 3 3 3 3 3 3 3 3 3 3 3 3 3 3 3 4 3 3 4 3 3 4 3 3 3 3 3 3 3 3 3 3 3 3 3 3 3 3 3
14 12 11 10 10 10 10 9 8 7 7 7 7 7 7 7 6 6 5 5 4 4 4 3 3 3 3 3 3 3 2 3 3 2 3 2 2 3 3 2 3 3 3 3 3 3 3 3 2 2 2 2 2 2 2 3 3 3 3 3 3 3 3 3 3 3 3 4 3 3 3 3 3 3 3 3 3 3 3 3 3 3 3 3 3
12 11 10 10 11 10 9 8 7 7 7 7 7 7 6 6 5 4 4 4 4 3 3 3 3 3 3 3 3 3 3 3 3 2 2 3 2 2 3 3 3 3 3 3 3 3 3 3 2 2 2 2 2 2 2 2 3 2 2 3 3 3 3 3 3 3 3 3 3 3 3 3 3 3 3 3 4 3 3 3 3 3 3 3 3
11 11 11 11 10 8 8 7 7 8 8 7 7 6 5 4 4 4 4 4 4 4 3 3 3 3 3 3 3 3 3 3 3 3 3 3 3 3 3 3 3 3 3 3 3 3 3 3 3 2 2 2 2 2 3 2 2 3 2 3 3 3 3 3 3 3 3 3 3 3 3 3 3 3 3 3 3 3 3 3 3 3 3 3 3
11 11 10 9 8 8 7 8 8 8 7 6 5 4 4 4 4 4 4 4 4 4 4 3 4 3 3 3 3 3 3 3 3 3 3 3 3 3 3 3 4 4 4 3 3 3 3 3 3 3 2 3 2 2 3 2 2 3 3 3 3 3 3 3 3 3 3 3 3 3 3 3 3 3 3 3 3 3 3 3 3 3 3 3 3
10 9 9 8 8 8 8 8 8 6 6 5 4 4 4 4 5 4 4 5 4 4 4 4 4 4 3 3 4 3 3 3 3 3 3 3 3 3 3 4 4 4 4 4 3 3 3 3 3 3 3 2 3 3 2 3 3 3 3 3 3 3 3 3 3 3 3 3 3 3 3 3 3 3 3 3 3 3 2 3 3 3 3 4 3
9 8 8 8 8 8 7 7 6 5 5 4 4 5 5 4 5 4 4 4 4 4 4 4 3 4 4 3 3 4 3 3 3 3 3 3 3 3 4 4 4 4 4 4 4 3 3 3 3 3 3 2 3 3 2 3 3 3 3 3 3 3 3 3 3 3 3 3 3 3 3 3 3 2 2 2 2 2 2 2 3 3 3 3 3
9 9 8 8 8 7 6 5 5 5 5 5 5 5 5 4 4 4 4 4 4 4 3 4 4 3 4 4 3 4 4 3 3 3 3 3 3 3 4 4 4 4 4 4 4 3 3 3 3 3 3 3 3 2 3 3 3 3 3 3 3 3 2 3 3 3 3 3 3 3 3 2 2 2 2 3 2 2 3 2 3 3 3 3 4
9 8 8 7 6 5 5 5 5 5 4 4 5 4 4 5 4 5 5 4 4 4 3 3 4 3 3 3 3 3 4 3 3 3 3 3 3 3 4 4 4 4 4 4 4 3 3 3 3 3 3 3 3 2 3 3 3 3 3 3 3 3 2 3 3 3 3 3 3 3 2 2 2 2 2 2 2 2 3 3 3 3 3 3 3
8 7 6 6 5 5 5 5 4 4 4 4 4 4 4 5 5 4 4 4 4 4 3 3 3 3 3 3 3 3 3 3 3 3 3 3 3 4 4 4 4 4 4 4 3 3 4 4 3 3 3 3 3 3 3 3 3 3 3 3 3 3 3 3 3 3 3 3 3 3 3 2 2 3 2 2 3 3 2 3 3 3 3 3 3
6 6 6 6 5 5 5 5 4 4 4 4 4 5 4 4 4 4 4 4 3 3 4 3 3 3 3 3 3 3 3 3 3 3 3 3 3 4 4 4 4 4 4 4 4 4 4 4 3 3 3 3 3 3 3 3 3 3 3 3 3 3 3 3 3 3 3 3 3 3 3 3 3 3 3 3 3 3 3 3 3 3 3 3 3
6 6 6 5 5 5 4 4 4 4 4 4 4 4 4 4 4 4 4 4 3 3 3 3 3 3 3 3 3 3 3 3 3 3 3 3 3 4 4 4 4 4 4 4 4 4 4 4 4 3 3 3 3 3 3 3 3 3 3 3 3 3 3 3 3 3 3 3 3 3 3 3 3 3 3 3 3 3 3 3 3 3 3 3 4
6 6 6 5 5 5 5 4 4 4 4 4 4 4 4 4 4 4 4 3 3 3 3 3 3 3 3 3 3 3 3 3 3 3 3 3 3 4 4 4 4 4 4 4 3 4 4 4 4 3 3 3 3 3 3 3 3 3 3 3 3 3 3 3 3 3 3 3 3 3 3 3 3 3 3 3 3 3 3 3 3 3 4 4 4
5 5 5 5 5 5 5 4 4 4 4 4 4 4 4 4 4 4 3 3 3 3 3 3 3 3 3 3 3 3 3 3 3 3 3 3 3 3 3 4 4 4 4 4 4 4 4 4 4 4 3 3 3 3 3 3 3 3 3 3 3 3 3 4 4 4 4 3 3 3 3 3 3 3 3 3 3 3 3 4 4 3 4 4 4
5 5 5 5 5 5 5 4 4 4 4 4 4 3 4 4 4 4 4 3 3 3 3 3 3 3 3 3 3 3 3 3 3 3 3 3 3 3 3 4 4 4 4 4 4 4 4 4 4 4 3 3 3 3 3 3 3 3 3 3 4 4 4 4 4 4 4 4 4 3 3 3 3 3 3 3 4 4 3 4 4 4 4 5 5
6 5 5 5 5 5 5 4 4 4 3 3 3 3 4 4 4 4 4 3 3 3 4 4 3 3 3 3 3 3 3 3 3 3 3 3 3 3 4 4 4 4 4 4 4 4 4 4 4 4 3 3 3 3 3 3 3 3 3 4 4 4 4 4 4 4 4 4 4 3 3 4 3 3 4 4 4 4 4 3 4 4 4 5 6
6 5 5 5 5 5 5 4 4 3 3 3 3 3 4 4 4 4 4 3 3 3 4 4 3 3 3 3 3 3 3 3 3 3 3 3 3 3 4 4 4 4 4 4 4 4 4 4 4 3 3 3 3 3 3 3 4 3 3 4 4 4 5 5 4 4 4 4 4 4 3 4 4 4 4 4 4 4 4 4 4 5 5 5 6
5 5 5 5 5 4 4 4 4 4 3 3 3 3 4 4 4 4 4 4 3 3 4 4 4 3 3 3 3 3 3 3 3 3 3 3 3 3 4 4 4 4 4 4 4 4 4 4 4 4 4 4 3 4 4 3 4 4 4 4 5 4 5 5 4 4 4 4 3 3 3 4 4 4 4 4 4 4 4 4 5 5 6 6 6
5 5 5 4 4 4 4 4 4 4 4 4 3 3 4 4 4 4 4 4 4 4 4 4 4 3 3 3 3 3 3 3 3 3 3 3 3 3 4 4 4 4 4 4 4 5 4 4 4 4 4 4 3 3 4 3 3 4 4 4 5 5 4 4 4 4 4 4 3 3 4 4 4 4 4 4 4 4 4 5 5 6 6 7 6
5 4 4 4 4 5 4 4 4 4 4 4 4 3 4 4 5 4 4 4 4 4 4 4 4 4 4 3 3 3 3 3 3 3 3 3 3 3 4 4 4 4 4 4 5 5 4 4 4 4 4 4 4 3 4 4 4 4 4 4 5 5 4 4 4 4 4 4 3 3 4 4 4 4 5 4 5 5 5 5 6 7 7 7 7
5 5 5 5 5 5 5 5 4 4 4 4 4 3 3 4 5 5 4 4 3 4 4 4 4 4 4 4 4 3 3 3 3 3 3 3 3 3 4 4 4 4 4 4 5 5 5 5 4 4 4 4 4 4 4 4 4 4 5 5 5 5 5 5 4 4 4 4 4 4 4 4 5 5 5 5 5 5 6 6 7 7 7 7 7
5 5 5 5 5 5 5 5 4 4 4 4 4 4 3 3 4 5 5 4 3 3 4 4 4 4 4 4 4 3 3 4 3 4 4 3 3 3 3 4 4 4 4 4 5 5 5 5 4 4 4 4 4 4 4 4 4 5 5 5 6 5 5 5 4 4 4 4 4 4 5 5 6 6 6 6 6 6 6 7 7 8 8 8 8
5 5 5 5 5 5 5 5 4 4 4 4 4 4 3 3 3 4 4 5 4 3 3 4 4 4 3 4 4 4 3 4 4 4 4 3 3 4 4 4 4 5 5 5 5 5 5 5 5 4 4 4 4 4 4 4 5 5 6 6 6 6 6 5 5 4 4 4 4 5 6 6 7 6 6 6 7 7 7 7 7 8 8 8 8
5 5 5 5 5 5 4 4 4 4 4 4 4 3 3 3 3 3 4 4 5 4 3 3 4 4 4 4 4 4 4 4 4 4 4 4 4 4 4 4 5 5 5 5 5 6 6 6 5 5 4 4 4 4 5 4 5 6 6 7 7 6 6 6 5 5 5 5 5 6 7 7 7 7 7 7 7 7 7 8 8 9 8 9 9
5 5 5 5 5 4 4 4 4 4 4 4 4 3 3 4 3 3 3 4 5 5 4 3 4 4 4 4 3 4 4 4 4 4 4 4 4 4 4 5 5 5 6 5 5 6 6 6 6 5 5 5 5 5 5 5 5 6 7 7 7 7 6 6 6 5 5 5 6 7 7 8 8 7 7 7 7 8 8 8 9 9 9 9 9
4 4 4 4 4 4 4 4 4 4 4 4 4 4 4 4 4 4 4 3 4 4 4 4 4 3 4 4 4 4 4 4 4 4 4 4 4 4 4 5 5 5 6 6 5 6 6 6 6 5 5 5 5 5 5 5 5 6 7 7 7 7 7 7 6 6 6 6 7 8 8 9 8 8 8 8 8 8 9 9 9 9 9 9 9
4 4 4 4 4 4 4 4 4 4 4 4 4 4 4 4 4 4 4 4 4 4 4 4 4 4 4 4 4 4 4 4 4 4 4 4 4 4 4 5 5 6 6 6 6 6 6 6 6 6 5 5 5 5 6 6 6 6 7 7 8 7 7 7 7 7 7 7 8 9 9 9 9 9 8 9 9 9 9 9 10 10 10 9 10
4 4 4 4 4 4 4 4 4 4 4 4 4 4 4 4 4 4 4 4 4 4 4 4 4 4 4 4 4 4 4 4 4 4 4 4 4 4 4 5 5 6 6 6 6 6 6 6 6 6 6 5 5 6 6 6 7 7 8 8 8 8 8 8 7 7 8 8 9 10 10 10 10 10 9 10 10 10 10 10 10 10 10 10 11
4 4 4 4 4 4 4 4 4 4 4 4 4 4 4 4 4 4 4 4 4 4 4 4 4 4 4 4 4 4 4 4 4 4 4 4 4 5 5 5 5 6 6 6 6 6 6 7 7 6 6 6 5 6 6 7 7 8 8 8 9 8 8 8 8 8 9 9 9 10 10 10 10 10 10 10 10 10 10 11 11 11 11 11 12
4 4 4 4 4 5 5 5 4 4 4 4 4 4 4 4 4 4 4 4 4 4 4 4 4 5 4 4 4 4 4 4 4 4 5 5 5 4 5 5 5 6 6 6 6 6 6 7 7 7 6 6 6 6 6 7 7 8 8 8 9 9 9 9 9 9 10 10 10 10 11 11 12 11 11 11 11 11 11 12 12 12 13 13 13
5 4 4 4 4 5 5 5 5 5 5 4 4 4 4 4 4 4 4 4 4 4 4 4 4 5 5 4 4 5 4 4 4 5 5 5 5 5 5 5 5 6 6 6 6 7 6 7 7 7 7 7 6 6 7 7 8 8 9 9 9 10 10 10 11 11 10 10 10 11 12 12 13 13 12 12 12 12 13 13 14 13 14 14 14
5 4 4 4 4 4 4 5 5 5 5 5 5 5 5 4 4 4 4 4 4 4 4 4 4 4 5 5 5 5 5 5 5 5 5 5 5 5 5 5 5 5 6 6 6 7 7 7 7 7 7 7 7 6 7 8 8 9 9 9 10 10 10 11 11 11 11 10 11 11 12 13 13 13 13 13 13 13 14 14 15 15 15 15 15
4 4 4 4 4 4 4 4 4 5 5 5 5 5 5 5 5 5 4 4 4 4 4 4 4 4 5 5 5 5 5 5 5 5 5 5 5 5 5 5 5 5 6 6 7 7 7 7 7 8 8 7 7 7 7 8 9 9 10 10 10 11 11 11 11 12 11 11 11 11 12 13 13 13 13 13 13 14 15 16 16 16 16 16 16
4 4 4 4 4 4 4 4 4 4 4 5 4 4 5 5 5 5 5 4 4 4 4 4 4 4 4 5 5 5 5 5 5 5 5 5 5 5 5 5 5 6 6 6 7 7 7 7 7 8 8 8 7 7 8 8 9 10 10 11 11 12 12 12 12 12 12 11 11 12 12 13 14 13 14 14 14 14 15 16 16 16 16 16 17
4 4 4 3 4 4 4 4 4 4 4 4 4 4 4 5 5 5 5 5 5 4 4 4 4 4 4 5 5 5 5 5 5 5 5 5 5 5 5 5 6 6 6 6 7 7 7 7 7 8 8 8 8 8 8 9 9 10 11 11 12 12 13 13 13 13 13 12 12 12 13 14 15 15 15 15 16 15 16 16 17 17 17 17 18
4 4 4 4 4 4 4 4 4 4 4 4 4 4 4 4 5 5 5 5 5 5 4 4 4 4 4 4 5 5 5 5 5 5 5 5 5 5 5 6 6 6 6 6 7 7 8 8 7 8 8 8 8 8 9 10 10 10 11 11 12 13 13 14 14 14 13 13 13 14 14 15 16 17 17 17 17 16 16 17 18 18 19 20 21
4 4 4 4 4 4 4 4 4 4 4 4 4 4 4 4 4 5 5 5 5 5 5 4 4 4 4 4 5 5 5 5 5 5 5 5 5 5 5 6 6 6 6 6 7 7 8 8 8 8 8 8 8 8 9 10 11 11 12 12 12 13 14 14 14 15 15 14 14 15 15 16 17 18 19 19 18 18 17 18 19 20 21 23 24
4 4 4 4 4 4 4 4 4 4 4 4 4 4 4 4 4 4 5 5 5 5 5 4 4 4 4 4 5 5 5 5 5 5 5 6 5 5 6 6 6 6 6 6 7 7 8 8 8 8 8 8 8 8 9 10 11 12 13 13 12 13 14 15 15 15 15 16 16 16 16 17 18 19 20 20 19 19 18 19 20 22 24 25 26
4 4 4 4 4 4 4 4 4 4 4 4 4 4 4 4 4 4 4 5 5 5 5 5 4 4 4 4 5 5 5 5 5 5 5 5 5 6 6 6 6 6 6 6 6 7 8 9 8 8 8 9 8 8 9 9 11 12 13 14 14 14 14 15 16 16 16 17 17 17 17 18 19 19 20 21 20 20 20 20 21 24 26 27 27
4 4 4 4 4 4 4 4 4 4 4 4 4 4 4 4 4 4 4 4 4 5 5 5 4 4 4 4 4 5 5 5 5 5 5 5 6 6 6 6 6 6 6 6 6 7 8 9 9 8 8 9 9 9 9 9 10 11 13 15 15 15 15 16 16 17 17 17 18 18 18 19 19 19 20 21 21 21 21 22 23 25 27 28 28
4 4 4 4 4 4 4 4 4 4 4 4 4 4 4 4 4 4 4 4 4 4 5 5 5 5 4 4 4 5 5 5 5 5 5 5 6 6 6 6 6 6 6 6 7 7 7 8 9 9 9 8 9 9 9 9 9 10 12 14 16 17 17 17 17 17 18 18 18 19 19 19 20 20 20 20 21 21 22 23 24 25 27 28 28
5 5 5 4 4 4 4 4 4 4 4 4 4 4 4 4 4 4 4 4 4 4 4 4 5 5 5 4 4 4 5 5 5 5 5 5 6 6 6 6 6 6 6 7 6 7 7 8 9 9 9 9 9 9 9 9 9 9 10 13 15 17 18 19 19 19 19 18 19 19 20 20 20 20 20 21 21 22 22 23 24 26 27 28 28
Wind_Speed
124 122 121 119 117 116 114 113 112 111 109 108 107 105 104 103 102 102 101 100 100 99 99 99 100 101 102 104 106 109 111 113 115 117 119 120 121 122 123 124 124 124 123 124 125 126 126 125 125 126 125 125 124 123 122 122 121 120 119 117 117 115 114 113 112 113 117 119 119 118 117 116 114 111 109 109 110 111 112 114 115 117 119 121 121
121 120 118 117 116 114 113 112 110 109 108 107 106 104 103 102 100 99 98 97 97 96 96 97 97 98 99 100 103 105 107 109 111 113 114 115 116 117 118 119 119 119 119 119 120 121 121 121 121 121 121 120 119 118 117 117 116 115 114 112 111 110 109 108 106 108 111 112 112 112 111 109 107 105 103 103 105 108 110 111 113 114 116 118 119
119 118 117 116 115 113 112 110 108 107 105 104 103 102 101 100 99 98 97 96 96 96 96 96 96 97 97 98 100 101 103 105 107 108 110 110 111 112 113 114 114 114 114 115 116 117 117 116 117 117 117 116 115 115 114 113 112 111 110 108 107 105 104 103 102 103 105 106 106 106 104 103 102 101 100 100 102 105 107 109 111 112 114 116 117
118 116 115 114 113 111 110 109 107 106 105 104 103 103 102 101 100 98 97 97 96 96 95 95 95 95 95 96 97 98 100 101 103 104 106 107 107 108 109 109 109 109 109 110 111 112 112 111 112 112 112 112 111 111 111 110 110 108 107 105 103 101 100 99 98 98 100 100 100 100 99 97 96 96 96 96 99 102 104 107 109 111 112 114 115
115 114 113 112 111 110 109 109 108 108 108 107 106 105 103 101 100 99 98 97 96 95 94 94 93 93 93 93 93 94 96 97 99 100 102 103 103 104 105 106 105 105 104 105 105 106 106 106 107 107 107 107 107 107 107 107 106 104 103 101 100 98 96 96 94 94 95 95 95 95 94 91 91 92 92 93 96 100 102 105 107 108 110 112 113
113 112 111 110 110 110 109 109 109 109 108 107 105 104 102 101 100 98 97 96 94 94 93 92 91 90 90 90 90 90 91 92 94 96 97 99 99 100 101 102 102 101 100 100 101 101 102 102 103 103 103 103 104 104 103 103 101 100 99 98 96 94 93 92 91 90 91 91 91 91 89 87 87 88 90 91 94 98 101 103 105 106 107 109 110
111 110 110 110 110 110 110 109 109 108 107 105 104 102 101 100 98 97 96 94 93 92 91 90 90 89 88 87 87 87 88 88 90 91 93 94 95 96 97 98 98 97 96 95 96 96 97 97 98 99 99 100 100 100 99 98 97 96 95 94 92 90 90 90 88 87 87 88 88 88 86 83 84 86 88 90 93 97 99 101 103 104 105 107 108
110 110 111 111 110 110 109 109 108 107 106 104 103 101 99 98 97 95 94 93 91 90 89 89 88 87 86 86 85 85 85 86 87 88 90 91 92 93 93 94 94 93 92 91 91 91 92 93 94 95 95 96 95 95 95 94 93 92 91 90 88 87 87 87 85 84 85 85 86 86 83 81 82 85 87 89 93 96 98 99 100 102 103 105 106
110 111 111 110 109 108 108 107 107 106 104 102 100 99 98 96 95 94 93 91 90 89 88 87 86 86 85 84 84 84 84 84 84 85 87 88 89 89 90 90 90 90 89 88 88 88 88 89 90 91 91 91 92 92 91 91 90 88 87 87 86 85 85 84 83 82 83 84 84 84 82 79 81 84 86 88 92 94 95 97 99 100 101 102 104
110 110 110 109 107 106 106 106 105 104 102 100 98 97 96 95 93 92 91 90 89 88 87 86 85 84 83 83 82 82 82 82 82 83 84 85 85 85 86 86 86 86 85 85 85 85 85 85 86 86 87 87 87 88 87 87 85 84 84 84 83 83 83 82 81 81 81 82 83 83 81 79 80 83 85 87 89 91 92 95 98 98 99 100 101
109 109 108 106 105 105 104 104 103 101 99 97 96 95 94 93 91 90 89 88 88 87 86 85 84 82 81 80 80 79 79 79 80 80 81 82 81 81 81 81 82 81 81 81 82 82 82 82 82 82 83 83 83 83 82 82 81 80 80 81 81 81 80 80 80 79 80 81 82 81 80 79 81 83 83 84 87 89 91 94 96 96 97 98 98
107 107 106 105 104 104 103 102 100 98 97 95 94 93 92 91 90 88 87 87 86 85 84 83 81 80 78 77 76 76 76 76 77 78 78 79 78 78 77 77 77 77 78 78 79 79 79 79 79 79 79 78 78 77 76 77 77 77 77 78 78 78 78 78 78 78 78 79 80 80 79 79 81 81 81 82 85 88 90 93 95 95 95 96 97
105 105 104 104 103 102 100 98 96 95 94 93 93 92 90 89 88 86 85 84 83 82 81 80 78 76 75 74 73 72 72 73 74 75 75 76 75 75 74 73 73 74 75 76 76 76 76 76 76 75 75 74 73 72 73 73 73 73 74 75 76 76 77 77 77 76 77 77 78 78 78 79 80 79 79 81 84 87 90 91 93 94 94 95 96
103 103 102 101 100 98 96 95 94 93 93 92 91 90 89 87 85 83 81 81 80 79 78 77 76 74 72 71 70 69 70 71 72 73 73 73 73 72 71 70 69 70 73 74 74 74 74 73 73 72 72 70 69 68 69 70 70 70 71 73 74 74 75 75 75 75 75 76 77 77 77 77 77 77 78 81 84 86 88 90 91 92 93 94 96
101 100 100 98 97 95 94 93 93 92 92 91 89 88 86 84 82 80 79 78 78 77 76 75 73 72 71 69 68 67 68 69 70 70 70 70 70 69 68 67 67 67 70 72 73 72 71 71 70 69 68 66 65 65 66 66 66 67 69 71 72 72 72 73 73 73 73 74 75 75 74 74 75 75 76 80 83 84 85 87 88 91 92 94 95
98 97 97 96 95 94 92 92 91 91 89 88 86 85 83 81 79 78 77 77 76 75 73 72 71 71 69 67 66 66 67 67 68 68 68 67 67 67 66 65 65 65 67 70 72 71 69 68 67 66 64 62 62 63 63 62 64 65 67 68 69 70 70 71 72 71 71 73 73 72 71 72 72 73 75 78 80 80 82 84 87 89 91 92 93
95 95 94 94 93 92 91 90 89 87 85 84 82 81 80 78 78 77 76 76 76 73 71 70 69 69 67 66 65 65 65 66 66 65 65 65 65 64 64 64 64 64 66 68 71 70 67 64 63 62 60 60 61 60 60 60 62 64 65 66 67 67 69 69 69 69 70 70 70 69 68 69 71 72 75 77 77 78 80 82 84 87 89 90 91
94 93 92 92 91 90 89 87 85 83 81 80 79 78 77 76 76 76 75 75 74 72 69 68 68 67 65 64 63 63 63 64 64 63 62 62 62 62 62 62 62 63 64 67 69 68 64 60 59 58 58 59 59 57 57 59 61 62 63 63 64 66 66 66 66 66 67 67 67 66 66 68 70 72 73 75 76 77 79 80 82 84 86 87 88
92 91 90 90 89 87 86 84 82 80 78 77 76 75 74 74 74 74 73 72 71 69 67 67 67 66 64 62 61 61 61 62 62 61 60 60 60 60 60 60 61 62 63 65 66 65 61 56 55 56 57 58 57 56 56 58 60 61 60 60 62 64 64 62 62 63 63 64 64 64 66 67 68 69 71 73 74 76 77 78 80 82 83 84 85
89 88 88 87 86 84 82 80 79 77 76 74 74 74 72 71 71 71 71 70 67 65 64 65 65 65 63 61 59 59 59 60 60 59 58 58 58 58 58 59 60 61 61 62 63 61 58 54 54 56 57 57 56 55 55 56 58 59 58 58 61 61 59 58 60 61 62 63 63 63 64 65 66 67 69 71 72 73 74 75 78 79 80 80 82
86 85 84 84 83 82 80 79 77 75 74 72 72 71 70 68 68 68 68 67 65 62 62 62 63 63 62 60 58 57 56 57 58 57 56 56 56 56 56 57 58 59 59 59 59 58 56 53 53 54 55 55 55 54 54 55 57 57 56 57 58 57 56 57 59 60 61 62 61 61 62 63 64 66 68 69 70 71 72 74 75 77 77 78 79
83 82 82 82 81 80 79 78 76 74 72 70 69 68 67 66 65 64 65 64 62 59 59 60 61 61 60 58 56 55 55 55 56 56 55 54 54 54 55 56 56 56 56 57 57 55 53 52 51 52 54 54 54 53 53 54 55 55 55 55 54 53 55 56 58 58 60 60 60 60 61 63 64 65 66 66 68 70 71 72 74 75 75 76 78
81 81 81 81 80 79 78 77 75 72 70 68 67 66 65 64 63 62 62 61 59 57 57 58 59 59 58 57 54 53 53 53 54 54 53 53 53 53 53 54 54 54 55 55 54 53 51 50 49 51 53 54 54 53 52 52 53 54 53 52 51 52 54 55 56 57 58 59 59 60 61 62 63 64 64 64 66 68 70 71 72 73 74 75 76
81 80 80 79 79 78 77 75 73 71 69 67 65 64 63 62 61 61 60 59 57 56 55 56 57 57 56 55 53 52 52 52 52 52 52 51 51 51 51 52 52 52 53 53 51 50 49 49 49 50 53 54 53 51 50 50 52 53 51 50 50 51 53 54 56 57 57 58 59 60 61 61 62 62 62 63 65 67 69 70 71 72 73 73 75
79 78 78 77 76 76 75 74 72 70 68 65 64 62 61 61 60 59 59 58 55 54 54 54 55 55 54 53 52 50 50 50 50 50 50 50 49 49 50 50 50 51 51 51 49 48 48 48 49 51 52 52 52 50 49 50 52 52 50 49 50 51 53 55 56 56 57 58 59 59 59 60 60 60 60 62 65 67 68 69 71 71 71 72 74
77 76 75 74 74 73 72 72 70 69 67 65 63 61 59 59 58 58 58 57 54 52 52 52 53 53 52 52 51 49 48 49 48 48 48 48 47 48 48 48 49 49 50 49 48 47 47 48 49 50 50 51 50 50 49 49 51 50 48 48 50 52 53 55 56 57 58 58 58 59 58 58 58 58 60 62 65 66 67 68 69 70 70 72 73
74 73 72 71 71 71 70 69 69 68 67 65 63 60 58 57 56 55 55 55 53 50 50 51 51 50 50 50 50 48 47 46 46 46 46 46 46 46 47 47 47 48 48 47 46 46 47 48 48 48 49 50 50 50 49 49 50 50 49 49 50 52 54 55 56 57 58 58 58 58 57 56 57 58 61 63 64 65 66 67 68 69 70 71 72
71 70 70 69 68 68 68 67 66 66 65 64 63 60 57 56 55 53 52 53 52 49 48 49 49 48 48 48 48 47 46 45 44 45 45 45 45 45 45 46 46 47 46 46 45 45 47 47 47 47 48 49 50 49 48 48 49 49 48 49 51 53 54 55 56 57 57 57 57 56 55 56 57 59 61 62 63 64 65 66 67 68 69 71 71
70 69 68 67 66 66 67 66 65 64 63 63 62 59 55 52 53 53 52 51 50 47 46 47 47 46 46 47 46 45 44 43 43 43 44 44 44 44 45 45 45 45 45 44 44 45 46 46 45 46 47 48 49 48 47 47 47 48 47 48 50 51 52 54 55 56 56 56 55 55 55 56 58 59 60 61 62 64 65 66 67 68 69 69 70
69 68 67 66 65 64 65 64 63 62 60 60 61 60 54 49 47 49 51 52 50 45 43 45 46 44 44 45 45 43 42 42 42 42 42 43 44 44 44 44 44 44 43 43 43 44 44 44 44 45 46 47 47 47 46 46 47 47 47 48 49 50 51 53 54 55 55 54 53 53 54 55 57 58 59 61 62 64 64 65 66 67 67 68 68
67 66 66 65 64 63 63 62 61 60 58 57 57 58 56 50 44 42 46 51 52 46 41 42 45 43 41 42 43 42 40 40 40 41 41 42 43 42 42 42 42 42 42 42 42 43 43 43 43 44 45 46 46 46 46 45 46 47 47 47 48 49 51 52 52 53 53 52 52 52 53 54 56 57 59 60 62 63 64 64 65 65 66 67 67
64 64 63 63 62 61 60 59 58 57 56 55 54 54 54 52 47 40 38 44 52 50 42 38 42 43 41 39 41 41 39 38 39 40 40 41 41 40 40 40 40 40 40 41 41 41 41 41 42 43 44 45 46 46 46 45 45 45 46 46 47 49 50 51 51 51 51 51 51 52 53 55 56 58 59 60 61 62 63 63 64 64 65 65 66
63 61 61 60 59 58 57 56 55 54 53 53 52 51 50 50 49 43 36 35 43 50 47 39 38 41 41 39 38 38 38 37 37 38 39 39 39 39 38 39 39 39 40 40 40 40 41 40 41 42 43 44 45 45 45 45 45 45 45 46 47 48 49 49 50 50 50 50 51 52 54 56 57 59 60 60 61 61 62 63 63 64 65 65 65
61 59 57 56 56 56 55 54 53 52 51 50 50 49 48 47 47 45 41 34 35 43 47 43 38 38 39 38 36 36 36 36 36 37 38 38 38 38 38 38 39 39 39 39 40 40 41 40 41 42 43 44 44 45 45 46 46 45 46 46 47 48 48 48 48 49 50 50 51 53 55 56 58 59 59 60 60 61 62 63 63 64 64 64 64
59 57 56 54 53 52 52 51 51 50 49 48 47 46 46 45 44 44 43 39 34 36 42 44 40 36 37 37 36 34 35 35 35 36 36 36 37 37 37 37 38 39 39 39 40 41 41 41 41 42 43 44 44 45 45 46 46 46 46 47 47 47 47 47 48 49 50 51 52 54 55 57 58 59 59 59 60 61 62 62 63 63 63 63 63
58 57 55 54 52 51 50 49 48 48 47 46 45 44 44 43 43 41 40 39 37 34 36 40 40 37 35 35 35 34 33 34 34 34 35 35 36 36 36 37 38 38 39 39 40 41 41 41 41 42 43 44 44 45 45 45 45 45 45 46 46 47 46 47 48 49 50 51 53 54 55 56 57 58 58 59 59 60 61 62 62 63 62 62 61
57 56 55 53 52 50 49 48 46 46 45 44 44 43 42 41 41 40 39 37 36 35 34 36 37 37 35 34 34 33 32 33 33 34 34 34 35 36 36 36 37 38 38 39 40 40 40 40 41 42 43 44 45 45 45 45 45 45 45 46 46 47 47 47 48 49 51 52 53 54 55 56 56 57 58 58 59 60 60 61 61 62 61 60 60
56 54 53 52 50 49 49 47 46 45 43 42 41 41 41 40 39 38 38 37 36 34 33 34 35 35 34 33 33 32 31 32 32 33 33 34 34 35 35 36 37 38 38 39 39 40 40 40 40 41 43 44 45 45 45 46 46 46 47 47 47 48 48 48 49 50 51 53 54 54 55 56 56 57 57 58 59 60 60 60 60 60 59 59 59
55 53 51 49 48 47 46 46 46 44 43 41 40 39 38 38 37 37 36 36 35 34 32 32 32 33 33 33 32 31 31 31 31 32 33 33 34 34 35 35 37 37 38 38 39 40 40 40 39 40 42 43 44 45 45 45 45 46 46 46 47 47 47 48 50 51 53 53 54 54 54 55 56 56 58 59 59 59 59 59 59 59 58 58 59
55 53 50 48 47 45 44 44 44 44 43 41 39 38 37 37 36 35 34 34 34 33 32 31 31 31 31 32 31 31 31 31 31 31 32 33 33 34 34 35 36 37 37 38 38 39 40 39 39 40 41 43 44 45 45 45 45 45 45 46 46 47 48 49 51 53 54 54 54 54 54 55 56 58 58 59 59 59 59 59 58 58 58 59 59
54 52 50 48 46 45 43 42 42 42 42 40 39 38 37 36 35 34 34 33 32 32 31 30 29 30 30 31 31 30 30 30 31 31 31 32 33 33 34 35 36 37 37 37 38 39 39 39 39 39 41 42 44 44 45 45 45 45 46 46 47 48 49 51 52 54 54 54 54 54 55 57 58 59 59 59 59 58 58 58 58 58 58 59 60
52 51 50 48 46 44 43 41 40 40 40 39 38 37 36 35 34 34 33 32 31 30 30 29 28 28 28 29 30 30 30 30 30 30 31 32 32 33 33 34 35 37 37 37 37 38 39 39 39 39 40 42 43 44 44 45 45 45 46 47 47 48 49 51 53 54 54 54 54 55 56 57 58 59 59 59 59 58 58 58 58 58 59 59 59
52 50 49 47 45 44 42 41 40 39 38 38 38 36 35 34 33 33 33 32 31 30 29 28 27 27 27 28 29 30 30 29 30 30 31 31 32 32 33 34 35 36 37 37 37 38 39 39 39 40 40 41 42 43 44 44 45 45 46 47 48 48 49 51 53 54 54 54 54 55 56 57 57 58 58 58 58 58 58 58 58 59 59 59 59
51 50 49 47 45 43 42 40 39 38 37 37 37 36 35 33 32 32 32 32 31 30 29 28 27 26 26 26 28 29 29 29 29 30 30 31 31 32 32 34 35 36 37 37 37 38 39 39 40 40 40 41 42 42 43 44 44 45 46 47 48 49 50 51 53 54 54 55 55 55 55 56 57 57 57 58 58 58 58 58 58 59 59 59 59
52 51 50 48 45 43 41 40 38 37 36 36 35 35 34 34 32 32 31 31 31 30 29 27 26 26 25 25 26 28 29 29 29 29 30 30 31 31 32 33 34 36 36 37 37 38 39 40 40 41 41 41 42 43 43 43 44 45 46 48 49 50 50 52 53 55 55 55 55 55 56 56 57 57 57 57 58 58 58 58 59 59 59 59 59
52 51 50 49 47 44 42 40 38 36 35 35 34 33 33 32 32 31 31 30 30 30 29 27 26 25 25 25 25 26 27 28 29 29 29 30 31 31 31 32 34 35 36 37 37 38 39 40 41 41 42 42 43 43 43 43 44 45 46 48 49 50 51 52 54 55 55 56 56 56 56 57 57 57 57 58 58 58 58 58 59 59 59 59 59
51 51 50 49 47 45 43 41 39 36 35 34 33 33 32 31 30 30 30 30 30 30 30 28 26 24 24 24 25 25 26 27 28 28 29 29 30 30 31 32 33 35 36 37 37 38 39 40 41 42 42 42 43 44 44 44 44 44 46 47 49 50 51 53 54 55 56 56 56 57 57 57 57 57 58 58 58 58 58 58 59 59 59 59 59
51 50 49 48 47 45 44 41 39 37 35 34 33 33 32 31 30 29 29 29 29 29 29 28 26 24 23 23 24 24 25 26 27 28 28 29 30 30 31 31 33 34 36 37 37 38 39 40 41 42 43 43 43 44 45 45 45 45 45 47 48 50 51 53 54 55 56 56 57 57 57 57 58 58 58 58 58 58 58 58 59 59 59 59 59
51 50 48 47 46 44 43 42 40 38 36 34 32 32 32 31 30 29 29 29 29 29 29 28 26 24 23 22 23 24 24 25 26 27 27 28 29 30 30 31 32 34 35 36 37 38 39 40 42 43 43 43 44 44 45 46 46 46 46 47 48 49 51 52 54 55 56 57 57 57 58 58 58 58 58 58 58 58 58 58 58 58 59 59 58
52 50 49 48 46 44 43 41 40 39 37 35 33 31 31 31 30 30 29 29 28 28 28 27 26 24 23 22 22 22 23 24 25 26 27 27 28 29 30 31 32 33 35 36 37 37 39 40 42 43 44 44 44 45 45 46 47 46 46 47 48 49 51 52 53 54 56 57 57 58 58 58 58 58 58 58 58 58 58 58 58 58 58 58 58
51 50 49 48 47 45 44 42 40 39 37 36 34 32 31 30 30 30 29 29 28 28 27 26 25 24 23 22 21 21 22 23 24 25 26 27 27 28 29 30 31 33 34 35 36 37 38 40 41 43 44 45 46 46 46 46 47 47 47 47 48 49 50 51 53 54 55 56 57 58 58 58 59 59 59 59 59 58 58 58 58 58 58 58 57
Wind_Direction
292 292 292 292 291 291 291 291 290 290 289 288 287 286 285 283 282 281 280 278 277 276 275 273 271 270 268 267 267 266 266 265 265 264 264 264 264 264 264 264 264 264 264 264 264 264 264 264 264 264 264 264 264 263 263 263 262 262 262 261 261 260 259 258 257 256 256 256 256 255 255 254 254 253 251 250 249 248 247 245 244 243 243 242 241
292 292 292 292 292 292 292 291 291 290 289 288 287 286 285 284 283 282 282 281 280 278 277 276 274 272 270 269 268 267 266 266 265 265 265 264 264 264 263 263 263 264 263 263 263 264 264 264 264 264 264 264 264 264 263 263 263 262 262 261 260 260 259 258 257 256 256 256 255 255 254 253 253 251 249 248 247 246 245 244 242 242 241 241 240
292 293 293 293 293 292 292 291 291 290 289 289 288 288 287 286 286 285 284 283 282 281 279 277 275 274 272 270 269 268 267 267 266 266 265 265 264 264 263 263 263 262 262 263 263 263 263 263 263 263 264 264 264 264 263 263 263 262 262 261 261 260 259 258 257 256 256 255 254 254 252 251 250 249 248 246 245 244 243 242 241 240 240 239 239
293 293 293 293 293 293 293 292 292 292 292 291 291 290 289 289 288 288 287 285 284 282 280 278 276 275 273 272 270 269 268 267 267 266 266 266 265 265 264 263 263 262 262 262 262 262 262 262 262 262 262 263 263 263 262 262 262 262 262 261 261 260 260 259 258 256 256 255 254 252 251 249 248 247 245 244 243 242 241 240 240 239 238 238 238
294 294 294 294 294 294 294 294 294 293 293 292 291 291 290 290 289 288 287 286 284 283 281 279 277 276 274 272 271 270 269 268 267 266 266 266 265 265 264 264 263 263 262 262 262 262 262 262 262 262 262 262 261 261 261 261 261 261 261 261 261 260 259 259 258 256 256 254 253 251 249 247 246 245 243 242 241 240 239 239 238 237 237 237 237
294 294 294 294 294 294 294 293 293 292 292 291 291 291 291 291 290 289 288 287 285 284 282 280 279 277 275 273 272 271 269 268 267 267 266 266 265 265 264 264 264 263 263 262 262 262 262 262 262 262 261 261 261 261 261 261 261 261 261 261 260 260 259 259 257 256 255 254 252 251 248 246 244 243 241 240 239 238 238 237 236 236 235 235 235
294 294 294 294 294 293 293 293 293 292 292 292 292 292 292 292 291 290 288 287 286 285 283 282 280 278 277 275 273 272 270 269 268 267 266 266 266 265 265 265 264 264 263 263 262 262 262 262 261 261 261 261 261 261 261 261 261 261 260 260 260 260 259 258 257 256 255 254 252 250 247 244 243 241 240 238 238 237 237 236 235 235 234 234 234
294 294 294 294 293 293 293 293 293 293 293 293 294 293 293 292 291 290 289 288 287 285 284 282 281 280 278 276 275 273 272 270 269 268 267 266 266 266 265 265 265 265 264 264 263 262 262 261 261 260 260 260 260 260 260 260 260 260 260 260 260 259 258 257 256 255 254 253 252 250 247 243 242 240 239 238 237 237 236 236 235 234 234 234 233
294 294 293 293 294 294 294 294 294 294 294 294 294 294 293 292 291 290 289 288 287 286 284 283 281 280 279 277 276 274 273 271 270 268 267 266 266 266 266 266 266 266 265 264 263 263 262 261 260 260 260 259 259 260 260 260 260 259 259 259 258 257 257 256 255 254 252 251 250 249 246 243 241 240 238 237 237 237 236 236 235 235 234 233 233
294 293 293 294 294 295 295 294 294 294 294 295 295 294 293 292 291 290 290 289 288 286 285 283 282 280 279 278 276 275 273 272 270 269 268 267 266 266 266 266 266 266 265 265 264 263 262 261 260 259 259 259 259 258 258 258 258 258 257 257 256 255 255 254 253 251 250 249 248 247 245 242 240 239 238 237 237 237 236 236 236 235 234 234 233
293 293 294 295 295 295 295 295 295 295 295 295 294 293 292 292 291 290 289 289 287 286 285 284 282 281 279 278 277 275 274 273 271 269 268 267 267 266 266 265 265 265 265 264 263 262 262 261 260 259 259 258 258 258 258 257 257 256 255 255 254 253 253 252 250 249 248 247 246 245 244 241 240 239 237 237 237 237 236 236 236 235 234 234 233
294 295 296 296 296 295 295 295 295 296 295 295 294 293 292 291 291 290 289 288 287 286 285 283 282 281 280 279 277 276 274 273 271 270 268 268 267 266 265 265 265 265 264 263 262 262 261 260 260 259 258 258 257 257 257 256 255 254 254 253 252 251 251 250 248 247 246 245 245 244 242 240 239 238 237 236 236 236 235 235 235 235 234 234 233
295 296 296 296 295 295 295 296 296 296 295 294 293 292 292 291 291 290 290 288 287 286 285 284 283 281 280 279 277 276 274 272 271 269 268 268 267 266 265 264 264 264 263 262 261 261 261 260 259 259 258 258 257 257 256 255 254 253 252 251 251 250 249 248 247 246 245 244 243 242 241 239 237 236 235 235 234 234 234 233 233 233 233 232 232
296 296 295 295 295 296 296 296 296 295 294 293 293 293 292 292 292 291 290 289 287 286 285 284 283 282 281 279 278 276 274 272 270 269 268 267 266 266 265 264 263 262 262 262 261 260 260 260 259 259 258 258 257 256 255 254 253 252 251 250 249 248 247 247 246 245 243 243 242 240 239 238 236 235 233 233 233 232 232 232 232 232 232 231 231
296 295 295 296 296 297 297 296 295 295 294 294 294 294 293 293 292 291 290 289 288 286 286 285 284 283 281 280 278 276 274 272 270 269 268 267 266 265 264 263 262 261 261 261 261 260 260 260 260 259 259 258 257 255 253 252 251 250 249 248 248 247 246 245 244 243 242 241 240 239 238 237 236 234 232 232 232 231 232 232 231 231 230 230 230
296 296 296 297 297 297 296 296 295 295 295 295 295 295 294 294 293 292 291 289 288 287 286 285 284 283 282 280 279 277 274 272 270 269 268 266 265 265 264 262 261 260 260 260 261 260 259 259 259 259 259 258 256 254 252 251 249 248 247 246 246 245 244 244 243 241 240 239 239 238 237 236 234 232 231 231 231 230 231 231 231 230 230 229 229
297 297 298 298 297 297 296 295 295 295 295 295 295 295 295 294 294 293 291 290 289 288 287 286 284 283 282 281 279 277 275 273 271 269 268 267 265 264 263 262 261 259 259 259 260 260 259 259 259 259 258 256 254 252 251 249 247 246 245 244 244 243 242 242 241 240 239 238 238 237 236 235 233 232 230 230 230 229 230 230 230 230 229 229 228
298 299 298 297 297 296 296 296 296 296 296 296 296 295 295 294 293 292 291 290 289 288 288 287 285 283 282 280 278 277 275 273 271 269 268 267 266 264 263 261 260 259 258 258 259 260 260 259 259 259 257 255 253 251 249 247 246 245 244 243 242 242 241 240 239 238 238 238 237 236 234 233 233 231 230 230 229 228 228 229 229 229 229 228 228
299 298 297 296 296 296 296 296 297 297 296 296 296 295 295 294 293 291 290 289 289 289 288 287 285 283 281 280 278 276 275 273 271 270 268 267 265 264 263 261 260 259 258 258 259 260 261 260 258 257 256 254 252 249 247 245 244 243 242 241 241 240 239 238 238 238 237 237 236 234 233 232 232 231 230 230 229 228 227 228 228 228 228 227 227
298 297 297 297 297 297 297 297 297 297 297 297 296 296 294 293 292 291 291 289 289 288 288 286 284 283 281 279 277 276 274 273 271 270 268 267 265 264 262 261 260 259 258 258 259 260 260 259 256 255 254 253 250 248 245 244 244 243 242 240 240 239 238 237 237 237 236 235 234 233 232 232 231 230 230 229 228 227 226 227 227 228 227 226 225
297 297 297 297 297 298 298 299 298 298 298 297 296 295 294 293 293 292 291 290 289 289 287 285 283 282 281 279 277 275 273 272 271 270 268 266 265 263 262 261 259 259 258 258 259 259 259 257 255 254 253 251 249 247 245 244 243 242 241 239 239 239 237 236 235 235 234 234 233 232 231 230 229 229 229 228 227 226 225 225 226 226 226 225 224
298 298 298 299 299 300 300 300 299 299 299 298 297 296 295 294 293 292 291 290 290 289 287 285 283 281 280 279 277 275 273 271 270 269 267 265 264 263 261 260 259 259 258 258 257 258 257 255 253 252 251 250 248 246 244 243 243 242 240 239 238 237 236 235 234 234 233 233 231 230 229 229 228 228 228 227 227 226 225 224 225 225 224 224 223
300 300 300 301 301 301 301 301 300 300 299 299 298 297 296 296 295 294 292 291 290 289 287 284 283 281 280 279 277 275 273 271 269 268 267 265 263 262 261 260 259 258 257 257 257 257 256 254 252 251 250 248 247 245 243 243 242 242 240 238 237 236 235 235 234 233 232 231 230 229 228 228 228 228 227 227 226 225 224 224 224 224 223 222 222
302 302 303 303 303 302 302 302 301 301 301 300 299 299 298 298 297 295 294 292 291 289 287 284 283 281 280 278 277 275 273 270 269 267 266 264 263 261 260 259 258 257 257 256 255 255 254 252 250 249 248 247 246 244 242 241 241 240 239 237 235 234 233 233 232 232 231 230 229 229 228 228 227 227 227 226 226 225 224 223 223 223 222 221 221
303 304 304 304 303 303 303 303 303 302 302 301 300 300 300 299 298 296 294 293 291 289 287 285 283 281 280 279 277 275 273 271 269 267 266 264 263 261 260 258 257 256 255 255 254 253 251 250 248 246 246 246 245 243 240 239 239 239 237 235 233 232 231 231 231 230 230 229 229 228 228 227 227 227 226 226 225 225 224 223 222 222 221 221 220
304 304 304 304 304 304 304 304 304 303 303 302 302 302 301 300 299 297 295 293 291 289 287 285 283 281 280 279 277 275 273 271 269 268 266 264 263 261 259 258 256 255 254 253 252 251 249 248 246 245 245 244 243 241 239 238 238 237 235 232 231 231 230 229 229 229 229 228 228 227 227 226 226 226 225 225 225 224 223 222 222 222 221 220 220
305 305 305 305 305 305 305 305 305 305 304 304 303 303 302 301 299 297 295 293 291 290 288 285 283 281 279 278 276 275 273 271 269 268 266 264 262 261 259 257 255 254 253 252 251 250 248 247 245 244 243 243 241 240 237 236 235 235 232 230 229 229 228 228 228 228 228 228 227 227 226 225 225 225 225 224 224 223 222 222 221 221 221 220 220
306 306 307 307 307 306 306 306 306 305 305 304 304 303 303 301 300 298 295 293 292 290 288 285 283 282 280 278 276 275 273 270 268 267 265 263 261 259 258 256 254 253 252 250 249 248 247 246 245 243 242 241 240 239 237 235 235 234 232 229 229 228 228 228 228 228 228 228 227 226 225 224 224 224 224 224 223 223 222 221 220 220 220 220 220
308 309 309 309 309 308 307 307 306 306 305 304 303 302 302 302 301 300 297 294 291 290 288 285 283 282 280 278 276 274 272 270 267 265 263 261 259 257 255 254 252 251 250 249 247 247 246 246 245 243 242 241 240 239 237 235 234 233 231 229 229 229 228 228 228 228 228 228 227 226 225 224 224 223 223 223 222 222 221 220 220 220 220 220 220
311 311 311 310 310 309 308 307 307 306 305 304 303 302 302 302 302 301 298 295 292 290 288 286 283 281 279 278 276 273 271 269 266 264 262 260 257 255 254 253 252 250 249 247 246 246 246 246 244 243 241 240 239 238 236 234 233 232 230 228 228 228 228 228 228 229 229 228 227 226 225 225 224 224 223 222 222 222 221 220 220 220 220 220 220
312 312 312 311 310 309 308 307 307 306 306 304 304 303 303 303 302 301 299 296 293 291 289 287 284 282 279 277 275 273 270 268 265 263 261 259 258 256 255 254 253 251 249 247 246 246 246 245 244 242 240 238 237 236 235 232 231 230 229 228 228 228 228 228 229 229 229 228 226 225 225 225 224 223 223 222 222 221 221 220 220 220 220 220 220
313 313 312 311 310 309 308 308 307 307 306 305 304 304 304 304 303 302 299 296 294 293 290 287 284 283 280 277 275 273 270 267 265 262 260 259 258 256 254 253 252 250 248 246 245 245 245 244 244 242 240 238 236 235 233 231 229 228 228 227 227 228 228 228 228 228 228 227 225 224 223 223 223 222 222 221 221 221 221 221 220 220 220 220 220
314 314 313 312 311 310 310 309 309 308 307 306 305 305 304 304 304 303 300 295 293 293 292 289 284 282 281 277 274 273 270 267 264 262 260 258 256 254 252 250 248 246 245 244 243 243 243 243 242 240 239 236 234 233 231 229 227 226 226 226 227 227 228 228 228 228 227 225 224 222 222 222 222 221 221 220 220 220 221 220 220 220 220 220 220
315 315 314 313 313 312 312 311 310 309 308 307 306 306 305 305 304 303 302 298 293 291 291 290 286 282 280 278 274 272 269 267 264 261 259 257 255 252 250 248 246 244 242 240 240 240 240 240 239 237 236 234 233 231 230 228 226 225 224 225 226 226 227 227 227 226 225 224 222 221 221 221 221 221 220 219 219 219 219 220 220 220 220 220 220
317 316 316 315 314 314 313 312 311 310 309 308 307 306 305 304 304 303 302 300 296 290 289 289 287 283 279 277 275 271 269 267 264 261 258 256 254 251 248 246 244 242 240 238 238 238 238 238 237 235 234 232 231 230 229 227 226 224 223 224 224 225 225 225 225 224 223 222 221 220 220 220 220 220 220 219 219 219 219 219 220 220 220 220 220
319 319 318 318 316 315 314 313 312 311 310 309 308 306 305 304 303 302 301 300 298 293 289 287 286 284 280 277 275 272 269 266 264 261 258 255 253 250 247 244 243 241 239 237 237 237 237 237 236 235 233 231 229 228 227 227 226 225 224 223 224 224 223 223 222 222 221 220 219 219 219 220 220 220 220 219 219 219 219 219 219 220 220 220 220
322 321 320 319 318 316 315 314 313 311 310 310 308 307 305 304 303 302 301 299 298 295 291 288 286 284 281 277 275 273 269 266 264 261 257 254 251 249 246 243 242 240 239 237 236 236 236 236 236 235 233 231 229 227 225 225 224 224 223 222 222 222 222 221 220 219 219 218 218 218 218 219 219 219 219 219 219 219 219 219 219 220 220 220 221
322 322 321 320 319 318 316 315 313 312 310 309 308 307 306 305 303 302 301 299 297 295 292 289 286 284 281 279 276 274 270 267 264 261 257 254 251 248 245 243 241 240 238 236 235 235 235 234 235 234 233 231 229 226 225 224 223 223 222 221 220 220 219 219 218 217 217 217 216 217 217 217 218 218 218 218 218 218 218 219 220 220 220 221 221
323 322 322 320 319 318 317 315 314 312 311 309 308 307 305 304 303 302 301 299 297 295 292 288 286 284 282 279 277 274 271 268 264 261 257 254 251 247 245 242 241 239 238 236 234 234 234 233 233 233 233 231 229 226 225 224 223 223 223 222 221 219 218 217 216 216 215 215 215 215 215 216 217 217 218 218 218 218 218 219 219 220 220 221 222
323 323 323 322 321 319 318 316 315 313 312 310 309 307 306 304 303 302 300 299 297 295 292 290 287 284 282 280 277 275 272 269 265 261 257 254 251 247 244 242 240 239 238 236 234 233 233 232 232 231 231 230 228 226 224 223 222 222 222 222 220 219 217 216 215 215 215 214 213 213 213 214 215 216 217 218 218 218 218 218 219 220 220 221 222
324 323 323 323 322 321 319 318 316 314 313 312 310 308 307 305 303 302 300 299 297 294 292 289 287 285 282 280 278 275 272 269 266 262 258 254 251 247 244 241 240 239 237 236 234 233 232 232 231 230 230 229 227 226 224 223 222 221 221 221 220 218 216 215 214 215 214 214 213 212 212 213 214 215 216 217 218 218 218 218 219 220 220 221 223
324 324 324 324 323 322 321 319 317 315 314 312 311 309 307 306 304 302 301 299 297 295 292 289 287 284 282 280 278 275 273 269 266 262 258 254 251 247 244 241 239 238 237 236 234 232 231 231 230 229 228 228 227 225 224 222 221 221 221 221 220 219 217 215 214 215 214 213 212 211 212 213 214 215 216 217 217 218 218 218 220 220 221 222 223
325 325 325 325 325 324 322 321 319 317 315 313 312 310 308 306 304 302 301 299 298 296 294 291 288 284 282 279 277 275 272 269 266 263 259 255 251 247 243 240 238 237 237 235 233 231 230 230 230 229 228 227 226 225 224 223 221 220 220 220 220 219 217 216 215 215 215 214 213 212 212 213 214 215 216 217 217 218 218 219 220 221 222 223 223
327 326 326 326 326 326 324 323 322 320 318 316 313 312 310 307 305 303 301 299 297 296 294 292 288 285 281 278 276 274 272 269 266 263 260 256 252 247 243 240 238 237 236 235 233 231 229 228 228 228 227 226 224 224 224 223 222 221 220 220 219 219 217 215 215 214 214 214 213 212 212 213 214 215 216 217 218 218 218 219 220 222 223 223 223
329 328 328 328 328 328 327 325 324 322 320 318 315 313 311 309 307 304 301 299 297 296 294 291 288 285 282 278 274 272 271 269 266 262 259 257 253 248 243 240 237 236 235 234 232 230 228 227 227 227 226 225 223 222 222 223 223 222 221 220 219 218 217 216 215 214 214 213 213 212 212 212 213 214 215 217 217 218 218 219 220 221 222 223 223
331 331 330 330 330 329 329 327 326 324 322 320 317 315 312 310 308 305 302 299 297 295 294 292 289 285 282 278 274 270 268 267 265 262 260 257 254 250 245 240 237 235 234 233 232 230 228 226 226 226 226 225 223 221 221 221 222 223 222 222 220 219 217 216 215 215 214 214 213 212 212 212 213 213 215 216 217 218 218 219 220 221 222 223 223
334 333 332 332 331 331 330 329 328 326 324 322 319 316 314 311 309 306 302 299 296 295 294 292 290 285 282 278 274 270 267 265 263 261 259 257 254 251 246 241 238 235 233 232 231 229 227 226 225 225 225 225 223 221 220 220 221 222 222 222 221 220 218 217 216 215 214 214 214 213 213 212 212 213 214 215 216 217 218 218 219 220 221 222 223
336 335 335 334 333 333 332 331 330 328 326 324 321 318 315 313 310 307 304 300 298 295 294 293 291 287 282 278 274 270 266 264 262 260 258 256 254 252 248 244 239 236 233 231 230 228 227 226 225 224 223 224 224 223 221 219 219 220 221 222 222 221 220 218 217 216 215 214 214 214 214 213 213 213 214 215 216 217 217 218 219 219 220 221 222
338 337 336 336 335 335 334 334 333 331 329 327 324 321 317 314 312 309 306 303 300 297 296 294 292 289 284 279 274 270 266 263 261 259 256 255 253 251 249 245 241 237 234 232 230 228 226 226 225 224 223 223 223 223 222 220 219 218 219 220 221 221 221 220 218 217 216 215 215 215 214 214 214 214 214 215 216 216 217 217 218 219 219 221 221
339 338 338 337 337 336 336 336 335 334 332 330 328 324 320 316 313 311 308 305 303 300 299 296 294 291 286 280 275 270 266 263 260 258 256 254 252 250 249 246 243 239 236 233 230 228 226 225 225 224 223 222 222 222 223 222 220 218 217 218 220 221 221 221 220 219 217 216 216 215 215 215 215 215 215 215 216 216 217 217 217 218 219 220 221
340 339 339 338 338 337 337 337 337 336 335 333 331 329 325 320 317 314 311 309 306 304 302 300 297 293 288 282 277 271 267 263 260 258 256 254 251 249 248 246 243 240 237 234 231 229 227 225 224 224 223 223 222 221 222 222 222 220 218 217 218 219 220 221 220 220 219 218 217 216 216 216 216 216 216 216 216 216 217 217 217 218 218 219 220